Zurück zum Katalog

STARLINK-2735

AktivKommunikationVLEO
NORAD 48667·PAYLOAD·🇺🇸 United States

Gestartet May 26, 2021 von Cape Canaveral Space Force Station

Loading…

Nächste Überflüge (nächste 24 Stunden)

TLE

AktuellSource: CelesTrak SupGP

Epoche: Sep 14, 2026, 12:14 UTC

1 48667C 21044AF  26257.51020833  .00011835  00000+0  38067-3 0  2577
2 48667  53.1593 316.6907 0001357  73.6922  80.2039 15.31687623    11

Verfolge STARLINK-2735 in Echtzeit mit AllMySat

Download on the App Store